| time (UTC) | temp F | wind direction | speed knots | gust knots | rain 1hr in | rain 24hr in | rain mn in | humidity % | barometer mb |
| 20260504201512 | 72 | 76 | 0.9 | 0.0 | 0.00 | 0.00 | 0.00 | 41 | 1009.1 |
| 20260504200011 | 72 | 195 | 0.9 | 0.0 | 0.00 | 0.00 | 0.00 | 40 | 1009.2 |
| 20260504194510 | 73 | 161 | 0.9 | 0.0 | 0.00 | 0.00 | 0.00 | 40 | 1009.4 |
| 20260504193011 | 73 | 198 | 0.9 | 0.0 | 0.00 | 0.00 | 0.00 | 38 | 1009.6 |
| 20260504191506 | 73 | 95 | 0.0 | 0.0 | 0.00 | 0.00 | 0.00 | 40 | 1009.9 |
| 20260504190004 | 72 | 86 | 0.9 | 0.0 | 0.00 | 0.00 | 0.00 | 39 | 1010.1 |
| 20260504184503 | 72 | 163 | 0.9 | 0.0 | 0.00 | 0.00 | 0.00 | 40 | 1010.4 |
| 20260504183002 | 71 | 198 | 1.7 | 0.0 | 0.00 | 0.00 | 0.00 | 38 | 1010.6 |
| 20260504181600 | 72 | 209 | 0.9 | 0.0 | 0.00 | 0.00 | 0.00 | 40 | 1010.8 |
| 20260504180058 | 72 | 204 | 0.9 | 0.0 | 0.00 | 0.00 | 0.00 | 40 | 1010.9 |
| 20260504174556 | 72 | 180 | 0.9 | 0.0 | 0.00 | 0.00 | 0.00 | 40 | 1011.0 |
| 20260504173055 | 71 | 198 | 0.0 | 0.0 | 0.00 | 0.00 | 0.00 | 40 | 1011.2 |
| 20260504171554 | 70 | 196 | 0.9 | 0.0 | 0.00 | 0.00 | 0.00 | 41 | 1011.5 |
| 20260504120120 | 56 | 252 | 0.0 | 0.0 | 0.00 | 0.00 | 0.00 | 55 | 1013.6 |
| 20260504110105 | 53 | 38 | 0.0 | 0.0 | 0.00 | 0.00 | 0.00 | 60 | 1013.8 |
| 20260504081545 | 53 | 232 | 0.0 | 0.0 | 0.00 | 0.00 | 0.00 | 62 | 1014.0 |
| 20260504050025 | 50 | 332 | 0.0 | 0.0 | 0.00 | 0.00 | 0.00 | 62 | 1014.2 |
| 20260504044525 | 49 | 332 | 0.0 | 0.0 | 0.00 | 0.00 | 0.00 | 61 | 1014.3 |
| 20260504043024 | 49 | 332 | 0.0 | 0.0 | 0.00 | 0.00 | 0.00 | 61 | 1014.2 |
| 20260504041524 | 49 | 332 | 0.0 | 0.0 | 0.00 | 0.00 | 0.00 | 62 | 1014.3 |
| 20260504040020 | 49 | 332 | 0.0 | 0.0 | 0.00 | 0.00 | 0.00 | 61 | 1014.2 |
| 20260504034529 | 48 | 332 | 0.0 | 0.0 | 0.00 | 0.00 | 0.00 | 62 | 1014.1 |
| 20260504033033 | 47 | 331 | 0.0 | 0.0 | 0.00 | 0.00 | 0.00 | 65 | 1014.0 |
| 20260504031518 | 47 | 331 | 0.0 | 0.0 | 0.00 | 0.00 | 0.00 | 66 | 1013.9 |
| 20260504030017 | 47 | 331 | 0.0 | 0.0 | 0.00 | 0.00 | 0.00 | 64 | 1013.6 |
| 20260504024538 | 48 | 332 | 0.0 | 0.0 | 0.00 | 0.00 | 0.00 | 66 | 1013.7 |
| 20260504023016 | 48 | 331 | 0.0 | 0.0 | 0.00 | 0.00 | 0.00 | 64 | 1013.7 |
| 20260504021516 | 49 | 331 | 0.0 | 0.0 | 0.00 | 0.00 | 0.00 | 62 | 1013.8 |
| 20260504020016 | 49 | 332 | 0.0 | 0.0 | 0.00 | 0.00 | 0.00 | 61 | 1013.6 |
| 20260504014515 | 50 | 331 | 0.0 | 0.0 | 0.00 | 0.00 | 0.00 | 60 | 1013.6 |
| 20260504013016 | 51 | 331 | 0.0 | 0.0 | 0.00 | 0.00 | 0.00 | 57 | 1013.6 |
| 20260504011515 | 52 | 332 | 0.0 | 0.0 | 0.00 | 0.00 | 0.00 | 54 | 1013.4 |
| 20260504010014 | 53 | 332 | 0.0 | 0.0 | 0.00 | 0.00 | 0.00 | 52 | 1013.3 |
| 20260504004532 | 54 | 332 | 0.0 | 0.0 | 0.00 | 0.00 | 0.00 | 48 | 1013.3 |
| 20260504003013 | 55 | 332 | 0.0 | 0.0 | 0.00 | 0.00 | 0.00 | 45 | 1013.1 |
| 20260504001512 | 57 | 332 | 0.0 | 0.0 | 0.00 | 0.00 | 0.00 | 40 | 1012.9 |
| 20260504000011 | 59 | 332 | 0.0 | 0.0 | 0.00 | 0.00 | 0.00 | 36 | 1012.8 |
| 20260503234510 | 60 | 332 | 0.0 | 0.0 | 0.00 | 0.00 | 0.00 | 34 | 1012.7 |
| 20260503233008 | 61 | 325 | 0.0 | 0.0 | 0.00 | 0.00 | 0.00 | 33 | 1012.6 |
| 20260503231509 | 62 | 360 | 0.0 | 0.0 | 0.00 | 0.00 | 0.00 | 32 | 1012.5 |
| 20260503230008 | 62 | 313 | 0.0 | 0.0 | 0.00 | 0.00 | 0.00 | 31 | 1012.5 |
| 20260503224508 | 63 | 312 | 0.9 | 0.0 | 0.00 | 0.00 | 0.00 | 30 | 1012.6 |
| 20260503223006 | 64 | 291 | 0.9 | 0.0 | 0.00 | 0.00 | 0.00 | 29 | 1012.7 |
| 20260503221507 | 64 | 315 | 1.7 | 0.0 | 0.00 | 0.00 | 0.00 | 29 | 1012.6 |
| 20260503220007 | 64 | 331 | 0.9 | 0.0 | 0.00 | 0.00 | 0.00 | 29 | 1012.7 |
| 20260503214505 | 64 | 301 | 0.9 | 0.0 | 0.00 | 0.00 | 0.00 | 29 | 1012.5 |
| 20260503213007 | 63 | 294 | 0.9 | 0.0 | 0.00 | 0.00 | 0.00 | 30 | 1012.5 |
| 20260503211503 | 63 | 341 | 0.9 | 0.0 | 0.00 | 0.00 | 0.00 | 31 | 1012.5 |
| 20260503210003 | 63 | 294 | 1.7 | 0.0 | 0.00 | 0.00 | 0.00 | 31 | 1012.5 |
| 20260503204501 | 62 | 341 | 0.9 | 0.0 | 0.00 | 0.00 | 0.00 | 33 | 1012.7 |
| 20260503203106 | 63 | 298 | 0.9 | 0.0 | 0.00 | 0.00 | 0.00 | 31 | 1012.9 |